Location: Alsip
(41.6689°N, 87.7387°W)
Time: 21:10:06
(UTC+00:00)

Cosmos 1048 Rocket - Pass Details

Date: 26 October 2020
Orbit: 743 x 792 km, 74.0° (Epoch: 03 December)

Event Time Altitude Azimuth Distance (km) Brightness Sun altitude
Exits shadow 09:15:56 19° 14° (NNE) 1,793 6.1 -34.1°
Drops below altitude 10° 09:17:25 10° 16° (NNE) 2,352 6.8 -33.9°
Sets 09:19:50 0° 19° (NNE) 3,289 7.7 -33.4°
